Regional Weather Roundup
Issued by NWS

Home | Current Version | Previous Version | Text Only | Print | Product List | Glossary On
Versions: 1 2 3 4 5 6 7 8 9 10 11 12 13 14 15 16 17 18 19 20 21 22 23 24 25 26 27 28 29 30 31 32 33 34 35 36 37 38 39 40 41 42 43 44 45 46 47 48 49 50
000
ASUS45 KREV 021310
RWRNV
NEVADA REGIONAL WEATHER ROUNDUP
NATIONAL WEATHER SERVICE RENO NV
600 AM PDT TUE JUN 02 2015

NOTE: "FAIR" INDICATES FEW OR NO CLOUDS BELOW 12,000 FEET WITH NO
SIGNIFICANT WEATHER AND/OR OBSTRUCTIONS TO VISIBILITY.

NVZ001-003-004-021400-
WESTERN NEVADA

CITY           SKY/WX    TMP DP  RH WIND       PRES   REMARKS
RENO           PTCLDY    50  38  63 SW3       30.09S
CARSON CITY    FAIR      46  32  57 CALM      30.10S
MINDEN         FAIR      37  30  75 CALM      30.10
SLIDE MTN        N/A     34  16  47 W30         N/A
PYRAMID LAKE     N/A     54 N/A N/A W6          N/A
FALLON         CLEAR     50  36  58 CALM      30.07R
LOVELOCK       CLEAR     50  36  58 CALM      30.07R
HAWTHORNE      CLEAR     57  36  44 NW9       30.08R
$$

NVZ002-CAZ072-073-021400-
NORTHERN AND CENTRAL SIERRA

CITY           SKY/WX    TMP DP  RH WIND       PRES   REMARKS
S. LAKE TAHOE  CLEAR     39  31  72 CALM      30.14S
TRUCKEE        FOG       32  32 100 CALM      30.14S VSB<1/4
SQUAW VLY 8000   N/A     37  27  65 SW9         N/A
SUSANVILLE     CLEAR     43  37  81 W5        30.09S
BLUE CANYON    CLEAR     50  34  54 SE5       30.12S
MAMMOTH LAKES  FAIR      36  19  51 CALM      30.14S
BRIDGEPORT     FAIR      39  18  42 VRB3      30.12S
$$

NVZ030-031-036-021400-
NORTHERN NEVADA

CITY           SKY/WX    TMP DP  RH WIND       PRES   REMARKS
ELKO           CLEAR     49  37  63 SW5       30.06R
WINNEMUCCA     CLEAR     49  39  68 E5        30.09R
WENDOVER       CLEAR     64  34  32 NW22G31   29.93R
$$

NVZ035-037-021400-
CENTRAL NEVADA

CITY           SKY/WX    TMP DP  RH WIND       PRES   REMARKS
ELY            CLEAR     43  36  76 SE8       30.08R
EUREKA           N/A     44  30  57 S3        30.11R
$$

NVZ013-014-021400-
SOUTH CENTRAL NEVADA

CITY           SKY/WX    TMP DP  RH WIND       PRES   REMARKS
TONOPAH        CLEAR     56  27  32 NW10      30.05R
$$

NVZ017-020-022-021400-
SOUTHERN NEVADA

CITY           SKY/WX    TMP DP  RH WIND       PRES   REMARKS
LAS VEGAS      PTCLDY    73  33  23 S16G24    29.82R
N. LAS VEGAS   CLEAR     71  31  22 W7        29.85R
NELLIS AFB     CLEAR     73  36  25 S12       29.85R
HENDERSON      CLEAR     70  35  27 SW25      29.87F
MERCURY        CLEAR     61  29  29 NE7       29.93R
$$



USA.gov is the U.S. government's official web portal to all federal, state and local government web resources and services.